Date String (YYYY-MM-DD hh:mm:ss) UTC,Instrument flags,absolute air pressure of the measurement (hPa),sample flow rate (lpm),inlet stack bypass flow (lpm),air temperature of the measurement (°C),ambient temperature measured by the external sensor (°C),aerosol sample conditioner tube jacket temperature (°C),OPC LED temperature (°C),internal box temperature (°C),relative humidity of the measurement (%),span deviation,mass concentration of particles derived from Lorenz-Mie calculation of OPC scattering (μg/m³),mass concentration of particles derived from Lorenz-Mie calculation of OPC scattering (μg/m³),mass concentration of particles derived from Lorenz-Mie calculation of OPC scattering (μg/m³)
DateTimeUTC,F1_M11,P_M11,Q1_M11,Q2_M11,T1_M11,T2_M11,T3_M11,T4_M11,T5_M11,U1_M11,ZSPAN_M11,X0_M11,X2_M11,X1_M11
2023-07-02 07:00:00,SystemResetWarning,0833.6,5.01,000.00,029.4,027.4,000.0,038.0,030.9,25.9,0000.2,0008.99,0004.28,0003.90
2023-07-02 07:01:00,SystemResetWarning,0833.6,5.00,000.00,029.4,027.6,000.0,038.0,030.9,26.1,0000.0,0008.94,0004.27,0003.91
2023-07-02 07:02:00,SystemResetWarning,0833.6,5.00,000.00,029.4,027.7,000.0,038.0,030.9,26.0,0000.1,0008.89,0004.27,0003.91
2023-07-02 07:03:00,SystemResetWarning,0833.5,5.00,000.00,029.4,027.9,000.0,038.0,031.0,26.1,0000.0,0008.61,0004.27,0003.90
2023-07-02 07:04:00,SystemResetWarning,0833.5,5.00,000.00,029.4,028.0,000.0,038.0,031.0,26.3,0000.0,0008.54,0004.27,0003.90
2023-07-02 07:05:00,SystemResetWarning,0833.5,4.99,000.00,029.5,028.1,000.0,038.0,031.0,26.6,0000.0,0008.51,0004.26,0003.90
2023-07-02 07:06:00,SystemResetWarning,0833.6,5.00,000.00,029.5,028.2,000.0,038.0,031.1,26.7,0000.0,0008.55,0004.28,0003.92
2023-07-02 07:07:00,SystemResetWarning,0833.5,4.99,000.00,029.5,028.2,000.0,038.1,031.1,26.8,0000.0,0008.05,0004.31,0003.95
2023-07-02 07:08:00,SystemResetWarning,0833.5,4.99,000.00,029.5,028.3,000.0,038.1,031.1,26.9,0000.0,0007.81,0004.33,0003.99
2023-07-02 07:09:00,SystemResetWarning,0833.5,5.00,000.00,029.6,028.4,000.0,038.1,031.2,27.0,0000.0,0007.79,0004.37,0004.02
2023-07-02 07:10:00,SystemResetWarning,0833.4,5.00,000.00,029.6,028.4,000.0,038.1,031.2,27.1,-000.0,0007.92,0004.44,0004.06
2023-07-02 07:11:00,SystemResetWarning,0833.4,5.00,000.00,029.6,028.5,000.0,038.1,031.2,27.0,-000.3,0007.95,0004.50,0004.11
2023-07-02 07:12:00,SystemResetWarning,0833.4,5.00,000.00,029.6,028.5,000.0,038.1,031.2,26.8,-000.6,0008.00,0004.54,0004.16
2023-07-02 07:13:00,SystemResetWarning,0833.4,5.01,000.00,029.7,028.5,000.0,038.1,031.3,26.5,-000.8,0007.72,0004.57,0004.21
2023-07-02 07:14:00,SystemResetWarning,0833.3,5.00,000.00,029.7,028.5,000.0,038.2,031.3,26.5,-000.7,0007.37,0004.59,0004.25
2023-07-02 07:15:00,SystemResetWarning,0833.3,5.00,000.00,029.7,028.6,000.0,038.2,031.3,26.3,-000.5,0007.54,0004.62,0004.31
2023-07-02 07:16:00,SystemResetWarning,0833.2,5.00,000.00,029.7,028.6,000.0,038.2,031.3,25.8,-000.2,0008.06,0004.66,0004.35
2023-07-02 07:17:00,SystemResetWarning,0833.2,5.01,000.00,029.7,028.6,000.0,038.2,031.4,24.9,0000.3,0008.12,0004.70,0004.39
2023-07-02 07:18:00,SystemResetWarning,0833.3,5.00,000.00,029.8,028.7,000.0,038.2,031.4,24.5,-000.8,0008.18,0004.73,0004.39
2023-07-02 07:19:00,SystemResetWarning,0833.3,5.00,000.00,029.8,028.7,000.0,038.3,031.4,24.6,-000.9,0008.27,0004.74,0004.38
2023-07-02 07:20:00,SystemResetWarning,0833.3,4.99,000.00,029.8,028.7,000.0,038.3,031.4,25.3,-000.6,0008.22,0004.72,0004.36
2023-07-02 07:21:00,SystemResetWarning,0833.3,4.99,000.00,029.8,027.4,000.0,038.2,031.3,25.6,-000.4,0008.07,0004.66,0004.33
2023-07-02 07:22:00,SystemResetWarning,0833.3,5.00,000.00,029.7,025.6,000.0,038.1,031.0,25.7,0000.0,0007.93,0004.61,0004.31
2023-07-02 07:23:00,SystemResetWarning,0833.2,5.00,000.00,029.6,025.2,000.0,038.0,030.7,26.0,0000.4,0007.92,0004.62,0004.31
2023-07-02 07:24:00,SystemResetWarning,0833.2,5.01,000.00,029.5,025.5,000.0,038.0,030.5,26.1,0000.6,0007.92,0004.62,0004.31
2023-07-02 07:25:00,SystemResetWarning,0833.2,5.01,000.00,029.4,025.9,000.0,038.0,030.6,26.3,0000.8,0007.98,0004.66,0004.30
2023-07-02 07:26:00,SystemResetWarning,0833.2,5.00,000.00,029.4,026.3,000.0,038.0,030.7,26.3,0001.2,0007.86,0004.65,0004.29
2023-07-02 07:27:00,SystemResetWarning,0833.2,5.00,000.00,029.4,026.6,000.0,038.0,030.8,26.2,0001.1,0007.30,0004.64,0004.29
2023-07-02 07:28:00,SystemResetWarning,0833.2,5.00,000.00,029.4,027.0,000.0,038.0,030.8,26.2,0001.1,0007.33,0004.62,0004.28
2023-07-02 07:29:00,SystemResetWarning,0833.2,5.00,000.00,029.4,027.2,000.0,038.0,030.9,25.9,0000.8,0007.43,0004.61,0004.28
2023-07-02 07:30:00,SystemResetWarning,0833.1,5.00,000.00,029.4,027.5,000.0,038.0,030.9,25.5,0000.4,0007.54,0004.59,0004.29
2023-07-02 07:31:00,SystemResetWarning,0833.1,4.99,000.00,029.4,027.6,000.0,038.0,030.9,25.4,0000.3,0007.63,0004.61,0004.30
2023-07-02 07:32:00,SystemResetWarning,0833.1,5.00,000.00,029.4,027.8,000.0,038.0,031.0,26.3,0000.5,0007.73,0004.63,0004.31
2023-07-02 07:33:00,SystemResetWarning,0833.1,5.00,000.00,029.4,027.9,000.0,038.0,031.0,26.2,0000.4,0007.73,0004.61,0004.30
2023-07-02 07:34:00,SystemResetWarning,0833.2,5.00,000.00,029.5,028.0,000.0,038.0,031.0,26.4,0000.8,0007.77,0004.61,0004.30
2023-07-02 07:35:00,SystemResetWarning,0833.3,5.00,000.00,029.5,028.1,000.0,038.0,031.1,26.4,0000.0,0007.83,0004.61,0004.29
2023-07-02 07:36:00,SystemResetWarning,0833.0,5.00,000.00,029.5,028.2,000.0,038.1,031.1,26.2,0000.1,0007.82,0004.62,0004.30
2023-07-02 07:37:00,SystemResetWarning,0833.0,5.00,000.00,029.5,028.2,000.0,038.1,031.1,26.0,0000.3,0007.83,0004.62,0004.30
2023-07-02 07:38:00,SystemResetWarning,0833.0,5.01,000.00,029.5,028.3,000.0,038.1,031.1,26.1,0000.0,0007.85,0004.63,0004.30
2023-07-02 07:39:00,SystemResetWarning,0833.0,5.00,000.00,029.6,028.3,000.0,038.1,031.2,26.1,0000.4,0008.14,0004.66,0004.30
2023-07-02 07:40:00,SystemResetWarning,0833.3,5.00,000.00,029.6,028.4,000.0,038.1,031.2,26.2,0000.0,0008.23,0004.65,0004.30
2023-07-02 07:41:00,SystemResetWarning,0833.5,4.99,000.00,029.6,028.4,000.0,038.1,031.2,26.3,0000.0,0008.05,0004.66,0004.31
2023-07-02 07:42:00,SystemResetWarning,0833.1,5.00,000.00,029.6,028.5,000.0,038.1,031.2,26.3,0000.0,0008.03,0004.67,0004.32
2023-07-02 07:43:00,SystemResetWarning,0832.9,5.00,000.00,029.7,028.5,000.0,038.1,031.3,26.4,0000.0,0008.08,0004.70,0004.35
2023-07-02 07:44:00,SystemResetWarning,0833.0,5.00,000.00,029.7,028.5,000.0,038.2,031.3,26.4,0000.0,0008.12,0004.74,0004.37
2023-07-02 07:45:00,SystemResetWarning,0833.1,5.00,000.00,029.7,028.6,000.0,038.2,031.3,26.1,0000.0,0008.21,0004.73,0004.38
2023-07-02 07:46:00,SystemResetWarning,0833.1,5.00,000.00,029.7,028.6,000.0,038.2,031.3,25.9,0000.0,0008.76,0004.72,0004.39
2023-07-02 07:47:00,SystemResetWarning,0833.0,5.00,000.00,029.8,028.6,000.0,038.2,031.3,25.9,0000.0,0008.94,0004.69,0004.38
2023-07-02 07:48:00,SystemResetWarning,0833.0,4.99,000.00,029.8,028.7,000.0,038.2,031.4,25.7,0000.0,0009.07,0004.69,0004.37
2023-07-02 07:49:00,SystemResetWarning,0833.0,5.00,000.00,029.8,028.7,000.0,038.3,031.4,25.4,0000.0,0009.13,0004.68,0004.37
2023-07-02 07:50:00,SystemResetWarning,0833.1,4.99,000.00,029.8,028.7,000.0,038.3,031.4,25.3,0000.0,0009.69,0004.65,0004.36
2023-07-02 07:51:00,SystemResetWarning,0833.1,4.99,000.00,029.8,028.2,000.0,038.3,031.4,25.4,0000.0,0009.40,0004.66,0004.36
2023-07-02 07:52:00,SystemResetWarning,0833.2,5.00,000.00,029.8,026.1,000.0,038.1,031.2,25.8,0000.0,0009.38,0004.65,0004.34
2023-07-02 07:53:00,SystemResetWarning,0833.2,5.00,000.00,029.7,025.2,000.0,038.0,030.9,26.1,0000.0,0009.31,0004.62,0004.34
2023-07-02 07:54:00,SystemResetWarning,0833.1,5.01,000.00,029.6,025.3,000.0,038.0,030.7,26.1,0000.0,0009.34,0004.65,0004.34
2023-07-02 07:55:00,SystemResetWarning,0833.0,5.02,000.00,029.5,025.7,000.0,038.1,030.6,26.1,0000.0,0009.31,0004.65,0004.33
2023-07-02 07:56:00,SystemResetWarning,0833.1,4.99,000.00,029.4,026.1,000.0,038.1,030.7,26.2,0000.3,0009.20,0004.65,0004.32
2023-07-02 07:57:00,SystemResetWarning,0833.2,4.99,000.00,029.4,026.5,000.0,038.1,030.7,26.4,0002.8,0008.80,0004.68,0004.32
2023-07-02 07:58:00,SystemResetWarning,0833.2,5.01,000.00,029.4,026.8,000.0,038.0,030.7,26.5,0002.3,0008.80,0004.70,0004.32
2023-07-02 07:59:00,SystemResetWarning,0833.2,5.00,000.00,029.4,027.1,000.0,038.0,030.8,26.5,0001.3,0008.69,0004.69,0004.32
